Wind_Speed
23 23 22 22 23 22 20 17 13 11 10 8 7 5 4 4 4 4 6 5 4 3 3 4 6 7 7 6 5 6 6 7 6 5 5 6 9 14 22 27 28 26 24 21 20 17 15 13 10 11 15 14 12 12 12 11 7 4 2 5 10 12 11 9 6 4 6 9 8 8 5 4 7 6 6 7 6 6 6 4 5 5 4 3 2 4 6 7
24 23 21 22 22 21 20 17 13 10 10 9 6 5 4 4 3 4 6 5 4 3 4 5 7 8 8 7 7 7 7 8 7 6 7 9 14 20 25 28 27 25 20 17 15 12 10 8 6 7 13 15 11 8 11 11 4 6 7 8 11 11 10 8 7 8 8 9 9 8 4 3 6 6 6 5 6 7 5 6 7 6 5 5 4 6 8 9
24 23 21 21 21 20 19 17 12 10 10 8 6 5 4 4 3 4 5 4 3 4 5 7 9 9 9 9 8 9 9 9 8 7 8 12 19 23 27 28 26 21 17 15 13 11 11 8 6 5 10 14 11 8 11 8 3 7 8 11 14 10 10 9 8 8 7 6 6 7 3 2 5 6 6 5 5 6 5 8 8 6 7 7 7 7 10 10
24 23 21 20 20 18 18 16 12 10 10 8 6 5 4 4 3 4 5 4 4 5 7 9 11 11 11 11 10 11 11 10 9 8 10 17 22 25 26 25 21 18 16 14 13 15 13 8 8 11 14 16 12 7 9 7 4 10 12 14 15 10 11 10 7 7 6 5 4 4 2 2 7 7 7 5 3 5 7 9 8 7 7 8 9 9 10 9
23 23 20 20 19 17 17 15 12 10 9 7 6 5 5 4 4 4 4 4 5 7 10 12 13 13 12 11 10 11 10 9 9 10 15 20 23 25 23 21 20 18 16 13 14 16 16 12 15 18 19 17 12 8 7 6 5 11 17 17 16 11 12 11 7 7 6 5 6 5 4 5 7 7 8 5 3 7 9 10 10 9 8 9 10 10 10 10
22 22 20 19 18 17 15 14 11 9 8 7 6 5 5 4 4 4 4 5 7 9 12 14 14 13 12 10 9 9 9 9 9 14 19 22 23 23 20 20 21 19 16 14 12 13 13 10 10 14 17 15 12 11 9 7 5 9 20 17 15 12 12 11 6 6 5 6 8 7 7 7 4 5 8 7 8 12 12 12 11 10 10 10 10 10 11 12
22 21 19 19 18 16 14 13 11 9 8 6 5 5 5 4 4 5 5 7 9 11 15 15 14 12 10 9 10 10 10 9 11 16 21 21 22 22 20 21 18 15 14 14 12 11 9 5 5 5 12 14 11 11 12 10 8 10 20 17 14 13 11 10 6 8 9 10 12 11 10 8 4 6 10 11 13 14 14 13 12 11 12 11 11 12 12 14
21 20 18 18 17 15 13 12 10 9 8 6 5 4 5 5 5 5 7 9 11 13 15 15 14 12 10 10 11 12 11 10 12 18 21 19 21 20 19 16 12 12 12 11 8 7 8 5 5 3 10 13 10 11 10 10 13 13 16 15 12 12 11 11 11 13 13 13 14 12 12 11 8 10 13 15 16 16 15 15 13 13 13 12 13 14 14 15
21 19 17 17 16 14 11 10 9 8 8 6 5 5 5 5 5 6 8 10 13 15 15 14 14 12 10 10 11 12 12 11 13 19 20 18 18 16 15 13 13 14 11 11 5 3 6 7 6 4 10 12 9 11 4 3 13 14 13 14 11 12 13 14 15 16 15 15 11 11 15 14 10 11 15 16 15 18 19 16 15 15 15 14 15 17 16 16
20 18 16 16 15 13 10 9 8 8 7 6 5 5 6 6 7 8 10 13 15 15 14 14 13 11 9 10 11 11 12 13 14 19 18 16 16 13 13 12 12 12 12 12 13 11 11 11 7 5 10 14 11 10 3 3 11 12 14 16 13 14 15 14 15 15 14 15 11 13 18 16 12 11 15 16 13 18 20 17 16 16 16 16 17 19 18 18
19 17 15 15 14 12 10 8 7 7 7 6 5 5 6 7 8 10 12 14 15 14 14 13 11 9 7 10 11 10 13 14 14 18 17 15 14 12 12 11 9 13 14 14 14 12 10 11 10 11 15 16 14 12 7 8 11 10 13 18 17 16 14 13 15 14 11 13 13 14 20 18 15 15 16 15 13 17 19 17 17 15 16 17 17 18 18 18
17 16 14 13 13 11 9 7 6 6 6 6 5 6 7 8 9 11 13 15 15 13 12 11 9 8 8 11 11 11 14 16 15 16 16 13 12 12 14 11 10 15 16 12 8 7 6 8 11 13 12 10 11 14 12 10 11 11 13 17 18 13 11 10 12 12 11 12 10 9 18 20 17 17 17 14 13 16 15 15 17 16 16 16 15 16 16 15
16 15 14 13 12 10 8 6 5 5 6 6 6 7 8 8 10 12 14 16 14 12 11 11 10 11 11 11 12 14 15 16 15 14 14 12 12 13 12 8 6 10 13 9 7 6 7 8 8 8 8 8 9 14 15 12 10 12 14 17 18 13 11 7 8 10 9 12 10 3 13 18 15 16 16 14 13 12 12 13 15 15 15 14 14 14 13 13
15 14 13 12 11 9 7 6 5 5 6 7 7 8 8 8 10 14 16 15 13 12 12 11 10 11 12 9 10 13 13 16 17 14 13 11 12 11 7 5 6 5 7 6 6 5 6 5 2 5 8 5 9 16 16 12 8 10 14 16 16 15 12 7 4 5 5 7 6 4 15 17 13 15 15 14 11 9 10 12 13 13 14 13 13 12 12 12
14 13 13 11 10 8 7 5 5 6 8 8 8 8 7 7 10 15 17 15 13 12 11 10 9 9 8 7 9 9 10 15 16 13 10 10 11 8 3 4 6 6 5 4 3 2 3 1 3 4 8 5 9 16 15 11 7 7 13 15 16 16 14 9 5 2 6 5 1 3 15 16 13 14 15 13 10 8 9 10 11 12 12 11 11 10 11 10
13 13 12 11 9 7 6 5 5 8 10 11 10 8 6 6 10 16 16 15 14 12 11 9 9 8 7 9 9 8 10 13 13 12 10 10 11 8 2 2 5 6 5 2 1 2 2 2 2 5 7 7 10 13 12 9 8 8 12 16 15 13 13 12 9 4 7 6 5 7 13 16 14 15 14 12 9 7 8 9 10 11 10 9 9 8 8 8
12 12 12 10 8 6 4 4 7 12 14 14 13 11 7 5 10 16 16 15 13 11 11 10 9 10 12 13 12 11 12 13 14 14 11 9 9 8 4 3 5 5 5 4 1 1 5 5 5 5 5 7 8 8 11 10 10 13 14 17 15 11 11 11 9 7 6 7 12 13 16 17 14 14 15 11 8 8 7 8 9 9 8 7 7 6 6 6
11 11 11 10 8 5 3 5 11 15 15 14 12 10 7 6 12 17 17 15 12 11 11 10 10 10 12 13 13 12 12 14 15 13 10 6 6 10 5 5 6 5 6 2 3 6 9 8 6 5 6 8 6 6 10 11 12 16 17 18 17 11 10 11 10 9 8 11 15 15 16 16 13 13 15 12 8 7 8 8 8 7 7 6 6 5 4 4
11 10 10 9 7 4 2 7 14 15 13 11 9 7 5 10 15 17 17 15 12 10 7 3 7 9 11 10 10 10 11 13 12 10 8 5 6 11 6 4 3 4 6 7 6 7 9 10 8 7 10 11 8 7 10 13 13 15 17 17 16 13 12 12 12 10 8 13 16 16 17 17 14 14 15 13 10 8 9 9 8 8 7 7 6 5 3 3
10 9 10 8 6 3 2 9 15 14 11 8 5 4 5 12 15 17 18 16 13 9 7 6 2 6 8 7 4 5 9 8 8 9 8 8 9 10 6 3 3 2 6 7 6 7 9 12 12 11 12 12 10 10 13 15 14 14 15 16 15 15 14 11 11 10 7 13 17 15 17 16 15 15 14 12 10 10 10 9 10 9 9 8 7 6 4 3
9 8 9 8 5 2 4 12 15 12 10 7 3 4 6 7 6 10 15 14 13 10 9 8 5 3 5 2 3 5 7 6 8 8 7 10 10 8 4 2 2 2 5 6 5 8 9 11 11 10 10 11 10 11 13 17 16 14 14 16 16 16 16 12 9 9 6 12 17 13 15 16 14 14 12 11 10 11 10 10 10 10 10 9 7 7 5 5
9 7 7 7 5 1 5 13 15 11 8 4 2 4 5 4 3 4 10 12 13 12 9 7 3 2 4 3 7 6 7 10 11 9 7 9 9 7 5 2 3 2 5 6 5 7 10 10 9 8 9 10 12 13 14 16 17 16 15 16 17 16 17 12 8 9 8 12 16 12 14 15 12 13 12 10 9 9 10 9 9 10 9 9 8 7 7 7
8 7 6 7 4 2 6 13 15 10 5 3 4 6 7 6 1 5 9 10 12 14 13 8 4 2 4 6 10 9 12 12 10 12 12 6 3 8 7 2 3 3 2 4 4 6 9 9 8 8 9 10 13 14 15 17 17 17 15 14 16 17 17 15 11 10 9 12 14 13 15 15 11 11 11 10 9 8 9 8 8 9 9 9 9 10 9 9
8 7 6 6 4 3 8 14 16 10 5 6 7 8 4 5 2 5 8 9 10 14 14 9 6 5 5 9 11 12 14 11 9 14 14 5 4 6 7 2 4 5 5 5 3 5 7 8 9 10 10 12 14 13 14 18 18 16 14 11 13 15 14 16 15 12 12 14 13 12 14 12 8 8 9 9 8 7 8 7 8 8 8 9 10 11 12 11
9 7 6 5 5 5 9 14 17 11 8 9 9 5 2 1 2 4 5 7 9 13 11 6 7 6 7 11 12 12 11 8 10 12 13 8 1 4 6 4 6 8 9 6 4 5 8 8 10 11 12 11 12 13 12 16 18 15 13 9 9 11 12 15 15 14 16 15 9 6 7 6 5 4 6 7 7 7 7 5 6 8 8 10 11 11 12 11
10 9 7 5 6 6 9 14 18 14 12 12 8 2 3 1 3 3 3 5 8 13 11 7 9 7 11 13 10 13 12 8 11 10 10 6 0 6 8 4 4 7 9 5 3 7 10 10 9 9 12 12 11 13 12 13 16 14 11 11 11 9 9 12 13 11 11 11 7 0 2 4 5 4 4 5 6 5 5 5 5 7 8 9 10 10 10 10
11 10 8 6 6 7 9 14 18 17 15 12 6 2 3 2 3 4 2 4 6 11 12 10 12 10 13 12 10 15 12 8 13 12 9 6 4 8 5 4 3 4 9 8 6 9 9 11 12 9 10 12 11 12 11 9 12 13 11 12 12 8 7 8 8 6 4 5 6 3 2 6 7 5 5 5 5 5 5 5 6 7 8 9 9 9 8 8
13 10 10 8 6 8 10 14 18 18 15 9 4 4 5 2 2 4 2 2 2 8 9 11 13 10 12 13 15 17 9 10 17 14 8 5 8 11 7 7 6 2 8 9 7 9 10 11 13 13 12 11 10 10 11 10 10 13 11 9 8 7 9 9 5 4 3 4 6 7 6 6 5 7 7 6 5 4 6 6 6 7 7 6 6 6 6 6
15 11 10 9 8 8 10 13 17 18 13 6 2 5 6 2 2 4 2 0 5 8 6 11 10 9 14 16 15 14 9 12 14 11 9 6 9 12 8 8 9 6 7 9 7 6 7 8 8 12 14 12 11 10 10 10 10 13 11 9 8 6 10 11 7 5 4 4 7 11 8 3 4 9 10 9 8 7 7 7 6 6 6 5 3 3 4 4
17 13 10 9 10 10 11 13 17 18 14 7 4 5 6 3 3 3 1 1 7 5 6 13 10 9 17 16 13 12 10 10 8 9 14 11 10 11 7 8 10 9 10 12 11 4 4 6 5 10 14 13 11 11 9 7 10 13 10 11 9 5 6 9 8 7 4 3 7 11 9 3 3 10 12 9 6 7 7 7 8 7 6 5 3 3 3 3
18 15 11 10 11 10 11 14 17 18 15 10 7 7 6 4 4 3 0 3 6 3 8 15 10 8 15 16 14 12 11 9 7 10 15 13 12 13 10 9 10 7 6 12 13 8 9 11 9 12 16 16 14 15 11 8 9 11 7 12 12 4 5 6 6 6 2 3 5 9 10 6 4 7 10 7 5 6 6 5 7 8 6 5 4 4 4 4
17 14 12 10 11 11 12 15 17 17 16 13 11 9 7 5 7 8 4 2 4 5 8 12 10 9 13 14 12 13 13 11 8 10 12 11 12 13 10 8 7 4 6 11 15 14 15 13 12 12 17 18 14 17 17 14 15 9 4 13 12 3 3 2 2 3 2 2 4 9 12 8 6 5 5 7 8 7 5 6 7 6 6 6 6 6 4 4
17 14 12 11 10 12 13 16 17 17 17 15 14 12 9 5 7 13 11 3 3 6 6 8 10 11 14 15 11 12 14 12 12 12 11 12 13 11 9 7 7 4 6 11 14 17 15 12 13 15 19 20 11 12 19 19 20 16 10 12 10 4 3 1 2 1 1 2 5 11 11 7 6 5 4 5 6 5 6 8 8 7 7 6 4 4 2 2
17 14 12 11 10 12 16 17 17 17 17 17 16 14 13 10 9 14 14 7 4 4 3 5 9 12 15 16 13 12 14 13 13 13 11 13 14 12 9 7 6 5 6 9 9 13 15 12 16 20 23 23 16 10 8 10 15 15 9 6 6 5 4 3 4 3 3 6 9 11 8 5 6 4 3 5 5 5 8 9 8 8 8 4 1 1 3 4
17 15 12 10 10 14 18 18 16 17 17 18 19 18 19 18 16 16 15 10 5 3 2 3 8 14 16 18 16 14 15 13 10 12 12 13 14 12 10 8 7 8 8 6 5 8 11 11 16 21 21 20 15 12 8 10 12 15 11 7 5 5 5 4 4 8 12 9 6 8 5 5 6 3 5 9 8 8 9 9 10 10 8 5 3 4 5 7
18 15 13 11 11 16 19 18 16 17 18 19 21 23 24 22 18 16 14 10 5 4 6 8 8 17 18 19 19 16 15 12 9 11 13 13 13 11 10 8 8 10 9 7 6 6 8 9 13 19 20 14 9 10 11 10 10 15 15 9 4 5 5 6 6 9 12 6 3 7 7 7 7 6 11 13 10 11 12 12 12 11 10 8 8 8 8 9
17 15 14 11 12 17 20 19 16 17 19 21 23 26 26 23 19 16 14 10 5 5 9 13 8 18 19 18 20 17 15 14 12 12 12 13 13 12 11 8 4 8 11 10 9 7 7 8 10 14 18 13 6 7 10 7 5 10 12 8 7 6 4 3 5 5 5 2 3 9 12 14 13 12 17 18 14 14 15 14 14 13 13 12 11 10 10 10
16 15 13 9 12 19 20 18 16 17 19 22 25 25 25 23 19 17 14 11 7 6 10 13 9 18 20 16 17 16 16 16 15 14 11 10 10 10 13 10 3 4 11 9 8 10 9 9 8 8 11 11 9 10 15 13 8 3 5 8 9 5 5 7 6 3 2 1 2 8 14 18 18 17 19 22 20 19 18 18 17 16 15 14 12 10 11 10
14 12 9 7 14 18 18 17 16 17 20 24 26 25 25 23 19 17 15 13 11 10 12 12 6 14 18 16 15 13 14 17 16 16 13 11 10 8 10 10 2 3 10 8 7 12 13 9 8 5 6 11 15 17 19 18 14 8 4 7 7 3 4 10 8 5 5 3 1 5 8 15 21 21 19 18 20 20 20 20 19 17 16 13 10 10 11 9
11 7 4 10 14 15 16 17 16 17 21 24 25 24 24 23 19 18 17 16 14 13 14 14 9 9 13 15 15 11 12 18 17 16 16 12 10 8 8 10 3 2 9 9 6 10 12 10 7 5 7 12 14 15 14 14 16 13 8 9 10 6 5 9 8 6 5 3 3 4 4 11 17 20 20 16 15 16 16 16 17 16 15 13 11 11 12 8
10 5 9 13 14 15 15 16 17 18 20 22 24 23 22 22 20 18 17 16 15 15 16 16 14 11 10 12 14 11 12 18 18 17 17 13 11 10 10 9 5 1 4 6 7 8 11 12 8 4 7 9 8 8 7 8 11 11 9 9 12 12 9 8 5 6 6 5 5 6 4 9 10 15 19 17 15 15 15 15 16 15 15 14 14 14 12 9
10 7 11 14 15 16 14 15 16 17 19 21 21 21 20 21 20 18 15 13 13 14 15 16 15 11 9 11 13 10 10 13 14 16 17 14 11 10 11 10 8 5 2 2 9 11 12 14 9 4 7 7 6 8 7 5 8 10 11 10 9 10 11 8 5 7 9 6 5 6 3 5 8 12 15 16 17 17 16 16 16 16 16 16 17 16 13 10
11 9 13 17 18 17 15 16 15 14 17 18 18 20 19 20 20 17 14 11 9 12 14 15 14 10 9 12 12 10 8 7 10 15 16 13 11 10 12 11 8 8 5 5 11 13 12 13 10 5 5 5 7 10 5 3 7 9 8 9 10 10 9 9 7 8 10 8 6 6 1 4 10 12 14 16 18 19 19 18 18 18 18 18 18 17 15 12
14 11 14 18 20 19 20 21 17 14 15 14 16 19 19 19 20 17 15 10 8 13 15 15 13 11 10 11 10 11 10 6 8 14 16 12 11 12 12 11 9 9 8 7 10 12 10 11 10 6 3 3 6 8 6 4 6 6 4 2 7 9 8 9 7 7 8 7 8 6 3 7 13 14 16 19 21 24 24 21 20 20 19 19 19 18 17 14
16 13 16 21 21 20 22 22 18 15 14 13 14 16 17 19 20 19 17 12 8 14 17 14 10 11 12 12 10 9 10 8 9 13 15 10 9 11 10 11 11 10 9 6 6 8 9 11 12 8 4 3 5 6 7 7 6 5 5 4 4 8 9 8 8 9 8 7 10 9 4 7 15 16 17 20 24 28 27 24 24 23 21 20 20 19 18 14
17 13 16 23 24 22 21 20 18 16 14 13 14 15 17 18 19 19 18 13 11 16 18 14 9 12 14 15 12 9 9 11 9 10 12 8 6 10 9 9 11 11 10 8 5 5 8 10 11 10 8 6 7 7 8 9 7 5 5 5 6 8 8 6 6 8 8 8 10 10 7 7 12 14 17 20 25 29 29 27 27 25 23 22 21 20 18 15
19 15 15 21 23 22 22 19 16 16 14 13 15 15 15 15 16 18 18 15 13 16 20 18 13 15 17 16 15 11 9 12 13 12 12 7 5 8 9 7 9 11 10 8 6 6 7 8 7 6 6 6 7 7 7 8 9 7 6 7 6 6 7 9 8 8 7 8 10 10 8 7 9 11 15 20 24 28 29 27 25 23 22 21 21 19 17 14
22 19 17 20 21 21 22 20 17 17 16 15 17 17 14 13 13 14 14 15 15 17 22 21 16 15 16 16 17 15 12 13 14 12 13 10 7 8 10 9 10 11 10 8 7 7 6 7 7 5 5 6 8 8 8 9 9 9 8 8 7 7 11 14 12 9 8 9 9 10 10 8 8 10 12 15 17 20 23 23 22 21 20 20 20 18 15 13
25 24 20 20 23 22 20 19 19 19 18 16 18 18 15 13 12 10 9 13 17 20 22 21 16 12 13 16 18 17 14 15 15 13 14 13 9 9 13 13 12 12 11 10 9 8 7 8 7 6 5 6 8 9 10 11 10 9 10 10 10 12 15 14 11 9 9 9 9 10 10 8 7 8 10 12 15 18 22 23 22 22 21 20 18 15 13 12
27 28 23 20 24 24 19 17 17 18 18 16 18 19 16 13 10 7 7 13 18 22 23 22 16 10 10 16 20 18 15 14 15 16 17 15 9 9 14 15 14 14 13 10 8 9 9 8 6 5 5 5 6 8 10 12 12 12 13 12 13 15 15 13 11 10 13 12 10 9 8 7 7 9 11 15 20 23 24 24 23 22 20 19 17 15 12 9
29 30 26 21 23 26 23 19 16 17 17 15 16 18 18 15 11 6 8 13 18 23 24 21 16 10 9 14 19 19 17 14 14 16 19 18 12 10 12 13 14 15 13 10 8 9 10 8 5 5 5 3 2 3 5 8 11 13 15 15 15 15 17 15 12 13 15 13 10 10 9 7 8 14 16 19 22 23 24 24 23 22 21 19 17 14 10 7
29 30 26 22 23 26 27 23 19 17 15 13 14 18 19 17 15 12 11 12 17 23 24 20 14 12 12 13 15 17 16 16 16 17 18 18 16 14 12 10 12 14 12 10 10 9 10 9 6 6 5 4 1 2 3 5 6 7 8 9 9 15 17 15 15 15 15 13 11 9 8 7 9 15 19 23 25 24 23 22 20 19 19 18 16 14 9 5
Wind_Direction
358 358 358 358 359 358 359 359 358 356 355 356 2 19 35 38 41 41 45 55 69 94 118 126 127 127 126 113 98 88 80 84 90 97 93 91 103 114 113 108 110 112 106 99 96 94 88 86 78 68 67 61 66 64 70 94 102 110 45 30 69 75 79 92 104 101 96 102 101 97 87 68 82 79 72 80 78 68 74 86 78 73 77 86 97 103 99 91
356 357 358 359 359 359 -0 1 1 1 360 0 8 33 44 39 44 44 51 63 78 107 125 123 121 119 115 103 95 89 86 89 93 98 93 108 121 121 116 113 115 113 105 97 91 82 70 55 33 55 69 61 64 76 79 87 64 21 33 63 78 80 84 75 76 91 99 99 105 116 118 63 80 86 74 56 70 81 86 84 73 67 72 86 98 94 91 85
354 355 356 359 360 359 1 3 3 5 6 7 16 38 43 38 43 48 57 72 95 122 124 118 113 110 104 99 98 91 89 92 96 97 104 123 128 124 119 117 116 112 103 97 81 52 36 24 22 78 83 68 79 98 84 72 5 25 46 81 89 93 93 77 79 93 91 92 119 137 142 75 73 79 79 57 65 81 89 84 77 78 78 84 89 79 81 83
352 353 354 358 359 0 2 3 6 8 12 13 20 34 31 33 46 54 67 88 117 129 120 112 107 103 100 101 98 91 92 95 99 107 125 134 131 126 121 117 116 109 96 81 59 45 45 56 84 99 93 88 94 82 62 55 44 65 69 90 102 107 98 92 95 88 72 85 114 121 133 99 76 70 70 57 60 86 90 95 93 89 87 84 82 77 80 85
351 351 352 356 359 1 2 4 8 11 17 16 16 21 22 36 50 63 82 109 128 126 116 110 104 99 96 97 91 90 93 90 105 127 136 139 133 126 117 112 114 107 88 65 59 61 63 76 90 90 89 94 88 45 47 56 38 75 83 98 111 108 99 103 94 68 51 68 92 101 98 86 81 73 67 63 87 97 94 97 100 97 91 83 81 81 84 90
350 350 350 354 358 1 3 5 9 13 19 16 10 13 24 41 58 79 102 126 129 123 116 110 101 95 91 85 76 81 82 82 114 134 138 140 133 122 111 112 115 103 81 67 73 71 64 67 76 85 92 92 73 56 75 65 4 85 97 102 108 104 106 112 97 65 62 80 94 98 89 87 105 87 79 90 96 95 96 95 98 98 90 84 84 85 88 96
348 348 348 352 356 0 4 6 11 15 18 18 12 20 37 53 70 90 116 128 128 125 116 107 96 91 87 74 68 74 72 85 117 134 138 138 130 117 107 113 113 97 86 84 91 82 70 43 13 77 102 90 74 82 93 70 31 83 101 102 103 105 107 109 87 69 76 82 86 89 93 95 116 101 91 94 90 90 96 98 101 98 93 89 88 89 94 100
345 346 347 351 355 359 3 6 13 17 22 24 22 38 55 71 86 103 124 129 129 126 115 104 93 87 82 71 70 71 71 93 118 133 136 134 130 120 108 111 100 92 87 79 90 82 74 54 28 90 117 101 90 102 103 71 64 77 97 102 100 97 90 89 77 67 68 73 81 89 93 88 86 96 94 89 90 95 98 101 103 98 97 98 96 95 97 100
342 343 345 349 354 358 3 7 15 20 27 30 35 54 71 89 104 120 131 132 130 125 114 102 91 83 76 69 66 63 74 101 117 129 133 130 131 126 115 111 91 84 59 49 62 57 89 96 74 89 113 116 118 115 127 62 85 89 94 98 94 88 80 76 68 62 69 78 85 87 83 84 88 93 92 92 100 104 101 101 102 104 106 104 103 103 103 104
339 340 343 349 353 357 1 6 15 23 31 36 46 65 85 102 119 130 134 134 131 125 113 100 86 78 70 63 58 60 81 101 115 127 133 129 126 124 120 112 88 68 36 58 76 63 90 105 93 93 100 113 127 125 120 54 98 100 95 96 91 85 75 61 53 50 64 75 72 77 81 83 90 92 93 98 107 104 100 100 101 108 110 106 107 108 108 107
337 337 340 348 353 356 359 4 15 22 34 45 60 82 97 110 123 133 136 137 133 125 112 96 82 77 64 55 56 72 94 102 118 129 134 131 125 118 111 101 75 52 42 66 73 56 78 99 104 106 99 107 116 110 88 75 94 93 94 97 87 79 70 52 43 40 52 69 63 72 83 84 88 89 92 103 109 101 99 103 104 106 108 107 107 106 106 105
335 335 338 347 354 356 357 4 16 26 45 60 79 94 99 111 125 135 139 138 133 124 109 92 83 81 74 67 67 89 106 110 122 132 134 131 122 112 103 96 73 63 64 62 50 39 66 106 123 108 102 125 119 104 103 98 91 88 93 97 93 90 83 57 43 45 48 59 54 66 80 78 82 86 90 103 104 98 101 107 108 108 107 107 107 107 108 107
334 334 336 345 355 356 358 4 18 37 60 76 89 96 99 112 129 137 141 139 130 116 104 97 93 93 92 85 84 98 111 116 125 136 134 126 120 117 111 101 68 76 90 74 45 50 72 115 136 107 116 157 126 113 123 116 94 92 94 97 104 105 95 76 45 43 36 43 32 39 82 73 77 88 91 99 99 102 110 110 111 113 113 114 115 115 112 106
334 333 334 343 355 358 360 5 25 52 73 86 92 96 100 116 134 141 142 137 122 111 108 105 100 101 100 92 91 100 114 127 134 140 132 119 120 124 117 79 42 57 97 85 66 62 75 112 133 110 128 139 118 127 134 121 95 98 102 101 104 100 95 101 69 26 9 36 23 61 88 81 82 89 91 98 107 117 113 108 111 113 114 117 117 112 106 103
334 332 333 340 355 360 1 14 40 66 83 90 90 92 101 120 139 145 142 131 122 120 117 109 102 101 99 100 99 98 120 132 132 127 119 115 112 109 97 67 46 43 72 86 80 20 38 39 279 147 126 101 127 144 140 120 109 113 110 104 100 97 99 106 106 20 354 29 329 94 86 86 91 92 93 100 115 128 121 115 113 111 109 109 109 108 108 107
335 331 332 338 353 1 4 26 58 79 86 86 81 79 91 121 144 148 141 131 129 127 117 109 99 85 84 107 109 101 115 123 118 110 117 126 110 96 87 53 41 48 57 66 263 303 20 62 202 154 118 116 147 162 151 122 120 127 115 111 108 107 110 102 93 60 9 39 107 118 95 91 92 91 91 96 115 132 131 123 114 113 112 108 109 109 108 107
336 330 330 335 350 2 10 48 81 89 87 80 73 67 72 117 152 151 143 138 138 132 116 99 87 89 92 95 98 101 112 117 116 114 120 120 104 115 132 3 16 17 338 310 273 102 71 82 127 128 132 147 153 163 147 125 126 132 124 118 114 107 110 105 94 81 54 76 98 100 95 92 89 91 92 93 112 129 130 122 113 114 116 111 108 105 106 107
338 330 327 332 347 1 23 84 99 97 88 79 71 67 79 137 160 155 150 147 144 139 120 81 62 88 94 88 91 101 114 121 121 117 117 111 114 146 175 334 4 358 340 17 110 98 78 77 106 128 160 162 155 162 144 128 131 135 130 123 118 106 97 102 103 90 78 90 93 91 90 88 87 94 96 90 95 111 109 108 113 118 119 111 105 106 107 106
339 330 324 328 342 1 61 111 111 101 86 76 68 64 109 159 166 164 160 159 159 154 147 70 61 94 102 102 99 101 115 121 120 111 104 120 146 160 193 307 337 3 34 82 100 83 71 77 94 119 147 151 142 140 132 121 121 129 130 126 123 115 102 101 102 97 92 91 87 85 87 84 81 81 85 86 86 92 90 93 104 109 109 106 105 112 109 96
341 331 322 324 338 359 124 130 122 104 81 72 73 72 133 160 169 175 172 170 172 170 186 209 180 122 118 117 110 119 128 119 113 111 112 140 152 161 198 264 265 346 61 85 81 70 74 86 89 94 122 136 124 117 124 121 120 125 124 123 123 119 113 109 102 102 105 95 88 86 88 85 81 77 74 79 82 81 81 87 97 102 105 105 105 111 114 105
340 335 321 320 330 336 152 143 132 108 77 62 80 96 112 130 147 184 190 190 182 182 188 194 222 191 134 161 220 163 156 150 139 139 139 156 161 157 177 219 223 12 61 91 79 71 84 98 95 84 106 123 110 116 131 127 123 121 120 120 119 117 120 119 109 117 128 100 95 94 94 90 83 83 79 74 77 79 80 86 96 103 106 105 109 113 116 114
337 338 320 316 319 260 172 156 142 115 85 66 114 138 129 111 2 249 220 216 197 197 187 163 190 180 121 182 198 185 186 165 153 171 173 169 184 180 163 117 126 83 65 88 82 88 100 103 103 92 97 104 103 122 135 128 123 119 122 124 119 122 128 127 115 122 127 105 103 102 97 93 86 87 88 81 78 81 86 92 97 101 103 107 113 116 118 117
329 336 319 311 304 231 184 168 152 130 125 156 197 211 179 154 280 251 230 230 213 205 193 182 210 173 105 150 169 180 186 170 157 179 182 163 169 187 190 73 98 154 109 85 72 111 114 101 106 108 105 110 113 122 130 128 126 124 129 128 127 136 137 132 129 126 116 105 111 111 97 92 88 87 91 90 88 87 91 98 101 103 105 110 115 116 117 113
316 330 318 303 289 227 195 179 163 153 183 203 226 242 195 138 173 215 221 238 222 197 188 197 199 158 137 156 165 175 181 187 188 182 185 175 86 156 192 184 123 131 113 99 80 122 129 110 112 116 119 123 118 118 126 129 129 137 146 135 129 141 140 134 138 134 119 114 115 105 92 88 87 86 92 94 94 96 95 96 101 107 110 111 117 117 116 115
302 314 313 295 279 230 204 190 174 176 212 224 242 252 135 88 238 208 221 252 231 189 176 201 206 187 175 167 164 176 183 195 198 189 188 192 106 130 166 187 170 139 125 117 97 132 141 132 125 125 135 138 118 113 125 129 132 146 155 144 133 144 142 137 145 144 133 138 140 95 79 88 94 102 107 102 103 107 102 102 106 110 115 117 120 122 121 119
294 298 302 288 270 238 210 197 187 194 220 234 255 241 139 203 255 239 229 272 249 197 186 207 206 187 173 170 173 192 202 198 194 195 186 189 202 140 147 165 162 149 152 144 135 155 150 150 150 137 144 150 125 112 121 135 142 152 159 155 153 160 154 143 150 152 144 160 178 41 45 136 141 147 133 118 120 120 114 119 126 124 124 124 125 128 126 119
289 289 292 282 266 244 216 202 199 207 225 240 264 239 200 204 248 267 238 301 269 207 206 207 191 179 173 174 180 188 196 194 185 188 197 215 196 170 184 214 176 146 168 173 176 170 165 165 163 159 161 162 147 124 126 143 140 141 153 159 160 169 175 157 148 145 135 160 184 241 208 144 148 162 159 156 146 141 148 144 143 143 137 135 135 133 127 120
283 282 284 276 261 244 223 209 207 216 228 241 265 243 221 202 247 256 226 352 227 191 205 198 189 195 179 163 169 180 182 176 175 180 205 230 202 206 242 239 242 236 179 190 194 184 196 185 161 166 177 165 150 131 135 149 132 127 137 143 145 162 181 180 167 156 141 136 163 194 179 127 145 172 169 186 191 168 168 164 156 153 148 146 141 137 135 129
279 275 276 268 256 242 230 217 212 220 228 223 244 231 212 215 242 224 241 1 167 175 188 184 185 191 176 168 177 187 181 171 173 184 201 201 196 212 239 241 253 263 228 233 226 194 200 195 156 158 170 165 153 136 142 153 123 115 126 123 111 129 175 189 199 194 182 174 177 180 173 131 166 187 182 194 212 199 178 172 171 165 160 162 155 148 155 150
278 273 267 261 252 240 233 224 216 222 226 206 212 228 213 225 219 203 273 172 168 175 188 185 181 171 177 183 187 189 188 179 172 188 200 207 212 218 233 239 250 264 257 244 235 216 165 183 177 156 164 171 157 134 146 153 106 97 113 140 137 128 164 180 193 192 184 225 208 187 186 184 185 204 202 199 212 203 189 185 184 183 182 185 193 196 203 197
279 272 262 255 248 241 234 228 222 223 224 208 209 228 221 220 226 217 196 179 190 188 180 188 192 183 188 194 194 201 214 210 188 189 203 215 223 228 235 241 251 263 234 215 221 217 183 182 171 154 162 163 143 135 159 179 128 98 94 146 156 160 157 160 181 190 202 266 222 195 197 217 231 224 214 206 216 216 217 223 207 198 199 208 208 193 199 215
280 274 262 253 244 239 234 230 226 223 222 212 209 226 227 225 236 224 197 188 214 195 176 186 194 195 196 199 202 205 213 223 210 198 210 217 216 223 228 234 239 217 156 181 197 198 192 178 158 163 175 171 149 138 156 174 162 149 142 151 150 135 137 163 212 197 215 227 202 188 191 219 253 244 213 204 216 222 225 232 232 228 220 214 193 171 172 205
282 277 266 256 243 235 231 232 229 222 221 216 211 223 227 221 230 224 217 195 164 179 184 187 189 192 198 207 213 205 210 227 218 206 216 217 211 217 222 229 232 207 133 152 172 183 190 184 178 187 188 190 195 162 161 173 176 185 194 165 154 139 120 189 244 215 261 176 167 182 192 220 242 227 204 200 216 224 214 218 230 241 235 219 186 168 186 237
284 281 269 260 248 233 228 231 227 220 219 215 213 220 221 218 220 220 220 209 175 185 186 188 194 191 198 212 217 210 215 225 219 216 220 215 216 221 222 221 220 206 159 139 147 173 185 195 197 191 186 194 218 227 183 160 172 190 206 192 180 181 164 187 208 181 147 144 157 177 196 215 207 209 193 184 200 206 203 213 223 231 235 233 212 247 295 297
285 284 275 265 250 228 224 228 224 218 217 213 213 217 219 222 222 221 220 211 202 216 216 241 216 196 196 209 213 213 216 219 227 227 217 215 222 223 220 214 197 192 183 159 135 156 173 191 195 195 200 202 213 225 185 137 161 187 203 230 234 210 181 156 172 166 151 140 158 178 189 202 200 203 178 184 202 206 202 212 217 222 231 243 263 270 283 294
285 285 280 271 248 224 221 225 221 215 213 210 212 216 220 221 218 218 219 209 214 263 297 312 242 202 197 206 213 219 220 223 238 233 216 213 219 222 227 226 207 199 190 181 181 166 159 166 178 195 205 202 207 211 182 155 169 184 198 223 204 172 165 130 134 152 146 132 173 176 164 175 186 187 189 196 210 209 208 214 220 224 230 237 249 260 273 288
285 286 286 278 242 219 217 220 218 214 212 210 212 217 222 223 217 215 212 208 227 278 308 319 263 208 201 205 215 222 227 230 229 223 219 212 213 224 228 227 236 218 197 186 194 192 168 155 163 187 192 191 214 210 183 184 188 177 191 197 158 165 211 164 135 136 130 108 196 184 173 175 177 179 190 199 208 211 211 213 219 223 227 234 241 252 266 282
282 288 292 273 224 215 214 215 217 216 214 213 215 219 224 223 217 214 212 218 246 283 310 313 263 212 207 208 213 218 229 234 219 208 213 211 211 226 223 219 259 207 190 190 196 188 176 167 170 182 183 187 202 189 180 197 224 212 172 173 175 197 219 187 161 158 167 115 203 199 186 188 195 195 195 202 210 214 209 209 218 221 225 232 237 250 263 273
282 294 294 227 207 211 213 215 218 220 219 217 217 219 223 223 214 210 217 232 259 284 299 306 269 216 216 214 212 216 225 227 215 203 203 202 209 222 213 210 223 149 180 202 203 184 183 178 166 166 170 174 183 187 189 200 212 211 177 182 200 240 216 194 181 176 173 150 195 195 192 210 217 217 216 215 215 214 210 212 220 223 228 235 238 255 266 270
282 292 227 195 203 209 212 217 220 224 225 223 222 220 224 226 216 209 219 236 256 275 285 294 289 244 230 223 223 232 233 224 215 207 202 200 212 226 208 196 206 120 173 188 186 173 180 177 152 148 162 163 177 192 200 210 212 206 205 214 213 213 201 187 183 187 179 165 156 146 207 242 230 222 227 228 219 217 220 222 224 227 232 235 240 257 268 275
273 256 194 192 204 206 211 220 222 227 229 227 226 224 225 229 223 213 218 233 252 272 285 287 277 259 250 237 231 235 231 221 212 206 204 196 199 224 221 192 180 140 159 184 192 174 173 178 176 166 153 150 174 187 179 202 218 216 216 217 212 210 198 172 177 213 202 190 176 163 230 260 232 216 225 230 224 223 228 231 233 235 234 232 238 255 273 283
259 237 194 191 204 206 211 223 225 226 228 228 228 225 226 232 229 219 217 230 252 273 281 270 256 257 264 249 233 223 218 217 211 208 209 200 195 215 218 193 187 220 251 178 185 177 173 185 197 176 135 127 153 166 158 179 204 211 218 226 230 230 220 201 200 207 196 203 208 192 238 264 222 214 221 226 226 225 228 236 239 236 232 234 242 253 268 275
245 227 195 195 205 203 204 222 231 225 224 228 229 225 225 230 228 219 217 231 260 272 262 245 243 256 254 242 233 218 208 206 205 206 208 205 197 192 191 187 197 223 223 172 174 175 173 184 191 174 153 154 170 174 184 197 180 188 212 236 241 245 239 225 216 197 189 196 197 184 216 233 210 211 216 219 225 225 227 234 238 234 231 238 247 253 260 268
235 218 196 198 202 198 201 218 233 234 229 231 229 223 222 226 224 215 211 224 267 275 253 234 246 258 241 232 229 218 211 186 171 187 192 192 185 176 179 189 197 205 201 180 178 183 184 185 186 177 154 177 196 200 215 206 178 169 146 188 226 229 227 214 193 173 183 199 199 195 218 206 199 207 214 214 218 221 224 230 233 233 237 244 249 251 257 269
232 217 199 198 200 201 207 217 226 233 234 230 227 222 218 222 219 210 211 221 253 265 247 228 245 259 243 233 223 214 215 195 162 168 175 177 176 173 184 199 200 204 212 204 191 201 209 201 197 198 178 169 201 218 217 201 182 169 141 124 184 198 198 194 178 174 188 201 204 213 233 202 197 208 215 214 213 215 219 225 227 231 241 250 252 255 262 273
233 225 208 204 206 211 218 225 231 234 231 224 223 218 212 216 215 208 215 231 245 246 233 221 244 262 250 240 226 216 216 207 192 173 170 167 163 171 189 208 204 208 217 212 203 215 210 197 201 211 205 203 217 220 217 212 206 196 171 150 157 177 188 196 194 199 201 194 204 222 235 217 211 214 213 212 212 213 216 219 222 228 238 246 252 258 264 270
231 230 220 210 210 216 220 226 232 233 230 227 226 219 209 216 221 216 219 234 246 237 223 222 244 256 249 238 223 215 211 206 205 195 186 185 182 188 202 210 204 207 211 201 188 199 194 176 186 207 206 217 228 217 217 223 218 209 193 181 182 204 234 240 234 233 223 205 210 223 229 236 243 232 214 210 212 214 218 221 225 232 240 245 250 256 261 266
229 228 225 216 211 213 217 218 220 224 227 232 233 223 210 211 219 221 225 236 239 230 225 229 240 245 244 235 218 213 209 201 200 194 187 186 189 197 196 192 197 207 215 209 188 189 192 177 184 207 213 229 238 230 233 236 226 222 231 231 219 232 253 249 241 244 239 224 223 233 242 253 258 247 230 222 223 223 223 226 231 236 240 245 251 256 262 269
228 226 227 223 215 212 213 214 216 222 227 237 238 226 213 213 212 210 230 243 237 229 228 231 230 229 235 226 215 215 216 208 203 196 185 183 195 201 188 184 191 198 210 216 197 192 199 187 193 223 238 246 253 247 241 239 241 246 247 242 240 250 253 242 231 229 224 227 240 249 260 268 257 253 247 235 233 231 227 227 232 236 240 246 251 257 263 268
226 224 225 228 221 214 209 207 210 216 220 230 236 223 216 222 212 198 233 244 236 230 226 225 223 224 230 219 213 221 229 223 218 210 196 191 203 200 184 185 192 191 197 208 204 208 210 190 184 225 240 244 248 246 241 241 249 253 247 247 255 253 235 218 218 216 208 219 238 245 260 267 236 237 242 229 225 226 227 229 233 239 244 247 247 252 261 264
224 221 223 227 224 216 212 209 210 213 213 220 229 224 223 226 214 221 258 244 232 228 221 217 223 234 238 224 220 228 232 224 222 219 207 206 216 211 193 195 199 191 192 208 218 215 208 192 183 209 232 259 250 224 242 251 253 253 253 260 258 233 213 215 230 228 220 226 233 235 259 275 234 224 226 224 224 228 230 233 236 239 244 245 246 252 261 261
225 221 222 226 224 217 214 215 216 219 215 213 221 223 226 226 220 234 254 238 227 225 214 207 224 246 244 231 227 230 223 212 217 219 213 216 226 224 218 219 212 202 203 217 216 206 206 205 199 209 241 290 296 205 245 268 258 237 230 243 234 209 207 221 232 229 232 239 241 250 279 292 259 235 225 221 225 231 234 237 240 241 243 246 249 255 263 254
Height
3166 3164 3162 3160 3159 3157 3155 3154 3153 3152 3152 3151 3150 3150 3149 3149 3149 3148 3148 3148 3147 3147 3147 3147 3147 3147 3148 3148 3149 3149 3150 3150 3150 3151 3151 3152 3153 3153 3154 3153 3155 3157 3159 3159 3160 3161 3162 3163 3163 3164 3163 3162 3164 3164 3164 3164 3164 3163 3162 3161 3161 3162 3163 3164 3164 3164 3164 3163 3164 3164 3164 3165 3165 3165 3164 3165 3165 3164 3163 3163 3162 3162 3162 3161 3161 3162 3162 3162
3166 3164 3162 3160 3159 3157 3155 3154 3153 3153 3152 3151 3151 3150 3149 3149 3149 3149 3148 3148 3147 3147 3147 3147 3147 3148 3149 3149 3149 3150 3150 3151 3151 3152 3152 3153 3154 3155 3155 3155 3157 3158 3160 3161 3161 3162 3163 3164 3164 3165 3164 3163 3164 3165 3164 3164 3163 3162 3162 3162 3163 3163 3164 3165 3164 3164 3164 3163 3163 3163 3164 3165 3165 3165 3165 3165 3165 3164 3164 3163 3162 3162 3162 3162 3161 3161 3162 3162
3166 3164 3162 3160 3159 3157 3155 3154 3153 3153 3152 3152 3151 3150 3150 3149 3149 3149 3149 3148 3148 3147 3147 3147 3148 3149 3149 3150 3150 3150 3151 3151 3152 3152 3153 3154 3155 3156 3157 3157 3158 3160 3161 3162 3163 3163 3163 3164 3164 3165 3164 3163 3164 3165 3164 3163 3162 3163 3163 3163 3164 3165 3165 3166 3166 3165 3164 3164 3163 3164 3164 3165 3165 3165 3165 3166 3165 3165 3164 3163 3163 3163 3162 3162 3162 3161 3162 3162
3166 3164 3162 3161 3159 3157 3156 3154 3154 3153 3152 3152 3152 3151 3150 3150 3149 3149 3149 3148 3148 3148 3148 3148 3149 3149 3150 3150 3151 3151 3151 3152 3152 3153 3154 3155 3157 3158 3158 3159 3160 3161 3162 3163 3164 3164 3163 3163 3164 3164 3164 3164 3164 3164 3163 3163 3162 3163 3164 3164 3166 3166 3166 3167 3167 3166 3166 3165 3165 3165 3165 3165 3165 3166 3166 3166 3166 3165 3164 3163 3164 3163 3163 3163 3163 3162 3163 3163
3166 3164 3163 3161 3159 3158 3156 3154 3154 3153 3152 3152 3152 3151 3151 3150 3150 3150 3149 3149 3148 3148 3149 3149 3150 3150 3151 3151 3152 3152 3152 3153 3153 3154 3155 3157 3158 3159 3160 3160 3162 3163 3164 3164 3165 3165 3164 3164 3164 3164 3164 3164 3163 3161 3163 3164 3164 3164 3165 3166 3167 3166 3166 3167 3168 3167 3167 3167 3167 3166 3166 3165 3166 3166 3166 3166 3166 3165 3164 3164 3164 3164 3164 3164 3164 3164 3163 3164
3166 3164 3163 3161 3159 3158 3156 3155 3154 3153 3153 3152 3152 3152 3151 3151 3150 3150 3150 3149 3149 3149 3149 3150 3151 3151 3152 3152 3152 3153 3153 3153 3154 3154 3155 3158 3159 3160 3161 3162 3163 3164 3165 3166 3166 3166 3166 3165 3165 3164 3164 3164 3161 3161 3164 3166 3165 3165 3167 3168 3168 3167 3167 3168 3169 3168 3168 3168 3167 3167 3166 3166 3167 3167 3167 3167 3166 3165 3164 3164 3165 3165 3165 3165 3165 3165 3165 3165
3166 3164 3163 3161 3160 3158 3157 3155 3154 3153 3153 3152 3152 3152 3152 3151 3151 3151 3150 3150 3150 3150 3151 3151 3152 3153 3153 3153 3153 3154 3154 3154 3155 3155 3156 3159 3161 3162 3162 3163 3164 3165 3166 3166 3166 3166 3166 3166 3166 3165 3163 3162 3162 3164 3166 3166 3165 3165 3167 3169 3169 3169 3169 3169 3170 3169 3169 3168 3167 3167 3167 3167 3168 3167 3167 3167 3166 3165 3165 3165 3165 3166 3166 3166 3166 3166 3166 3166
3166 3165 3163 3162 3160 3159 3157 3156 3155 3154 3153 3153 3152 3152 3152 3152 3152 3151 3151 3151 3151 3151 3152 3153 3153 3154 3154 3154 3154 3154 3154 3155 3156 3156 3158 3160 3162 3163 3164 3165 3165 3166 3167 3167 3166 3166 3166 3166 3166 3165 3163 3162 3163 3165 3166 3166 3166 3166 3167 3170 3170 3170 3170 3171 3170 3169 3169 3167 3168 3168 3167 3168 3168 3168 3167 3167 3167 3166 3166 3166 3166 3167 3167 3167 3168 3168 3168 3168
3166 3165 3163 3162 3161 3159 3158 3156 3155 3154 3154 3153 3153 3152 3152 3152 3152 3152 3152 3152 3152 3153 3154 3154 3155 3155 3155 3155 3155 3155 3155 3156 3157 3158 3159 3161 3163 3164 3165 3166 3166 3167 3168 3167 3166 3165 3166 3166 3166 3165 3163 3163 3164 3166 3166 3166 3168 3168 3169 3170 3170 3171 3171 3171 3171 3170 3170 3169 3169 3168 3167 3168 3168 3169 3168 3168 3169 3167 3167 3168 3168 3168 3169 3169 3169 3169 3169 3169
3166 3165 3163 3162 3161 3160 3158 3157 3156 3155 3154 3154 3153 3153 3153 3153 3153 3152 3153 3153 3153 3154 3155 3155 3156 3156 3156 3156 3156 3156 3156 3157 3158 3159 3161 3163 3164 3166 3166 3167 3167 3168 3168 3166 3166 3165 3166 3166 3165 3165 3164 3165 3166 3167 3167 3167 3168 3170 3170 3171 3172 3172 3172 3172 3171 3171 3171 3171 3171 3169 3168 3169 3169 3170 3169 3170 3172 3169 3167 3169 3169 3170 3170 3170 3170 3170 3170 3170
3166 3165 3163 3162 3161 3160 3159 3157 3156 3155 3155 3154 3154 3153 3153 3153 3153 3153 3154 3154 3155 3155 3156 3157 3157 3157 3157 3157 3157 3157 3157 3158 3160 3161 3163 3164 3165 3167 3167 3168 3169 3168 3167 3167 3167 3167 3167 3166 3165 3165 3165 3166 3167 3168 3168 3168 3169 3171 3171 3172 3173 3173 3173 3173 3172 3172 3172 3172 3172 3171 3169 3170 3171 3171 3170 3172 3173 3170 3170 3171 3171 3171 3172 3172 3172 3172 3172 3172
3166 3165 3163 3162 3161 3160 3159 3158 3157 3156 3155 3155 3154 3154 3153 3153 3154 3154 3155 3155 3156 3157 3157 3157 3158 3158 3158 3158 3158 3159 3158 3159 3161 3163 3164 3166 3167 3168 3168 3169 3169 3167 3167 3168 3169 3169 3169 3168 3167 3165 3166 3167 3167 3168 3170 3171 3171 3172 3172 3172 3173 3174 3173 3174 3174 3173 3173 3173 3174 3173 3171 3172 3173 3173 3173 3173 3173 3171 3172 3173 3172 3173 3173 3174 3174 3174 3174 3173
3166 3165 3164 3162 3161 3160 3159 3158 3157 3156 3156 3155 3155 3155 3154 3154 3155 3155 3156 3156 3157 3158 3158 3158 3158 3158 3159 3159 3159 3160 3160 3160 3162 3164 3165 3166 3167 3168 3169 3168 3168 3167 3168 3169 3169 3169 3169 3169 3168 3167 3167 3168 3168 3169 3171 3172 3172 3173 3173 3173 3173 3175 3175 3176 3175 3174 3174 3174 3174 3174 3173 3174 3174 3174 3174 3174 3174 3174 3175 3175 3174 3174 3174 3174 3175 3174 3174 3174
3166 3165 3164 3163 3161 3160 3160 3159 3158 3157 3156 3156 3156 3155 3155 3155 3155 3156 3157 3158 3158 3159 3159 3159 3159 3159 3159 3160 3160 3161 3162 3162 3162 3165 3166 3167 3168 3169 3169 3168 3168 3168 3169 3170 3170 3170 3170 3170 3169 3169 3169 3169 3169 3169 3171 3172 3173 3173 3174 3174 3174 3175 3176 3177 3176 3175 3175 3175 3175 3174 3173 3175 3176 3175 3175 3175 3176 3177 3176 3175 3175 3175 3175 3175 3175 3175 3176 3175
3166 3165 3164 3163 3162 3161 3160 3159 3159 3158 3157 3157 3157 3157 3157 3156 3157 3157 3158 3159 3159 3159 3160 3160 3160 3160 3160 3161 3161 3161 3163 3163 3164 3165 3167 3168 3169 3169 3169 3169 3169 3169 3170 3171 3171 3171 3171 3170 3170 3170 3170 3170 3170 3170 3171 3172 3173 3173 3174 3175 3176 3176 3176 3177 3177 3177 3176 3176 3176 3175 3174 3176 3176 3176 3176 3176 3178 3178 3177 3176 3176 3176 3176 3177 3177 3177 3177 3177
3165 3165 3164 3163 3162 3161 3160 3159 3159 3159 3158 3158 3158 3158 3158 3158 3158 3158 3159 3160 3160 3160 3160 3161 3161 3161 3161 3162 3162 3162 3163 3165 3165 3166 3167 3169 3169 3169 3169 3170 3170 3170 3171 3171 3171 3171 3171 3170 3170 3170 3171 3171 3171 3171 3172 3172 3173 3174 3174 3175 3176 3176 3176 3176 3177 3177 3177 3176 3176 3176 3176 3177 3178 3177 3177 3177 3179 3179 3178 3178 3178 3178 3178 3178 3178 3178 3178 3178
3165 3164 3164 3163 3162 3161 3160 3160 3160 3160 3159 3159 3159 3159 3159 3159 3159 3159 3160 3160 3160 3161 3161 3161 3161 3161 3162 3163 3163 3163 3164 3165 3166 3167 3168 3169 3169 3169 3169 3170 3171 3171 3171 3171 3171 3171 3171 3171 3170 3171 3171 3172 3172 3172 3172 3173 3173 3174 3175 3175 3176 3177 3176 3176 3178 3178 3178 3178 3177 3177 3177 3178 3179 3179 3178 3179 3180 3180 3179 3179 3179 3179 3179 3179 3180 3180 3180 3180
3165 3164 3163 3163 3163 3162 3161 3161 3161 3161 3160 3160 3160 3159 3159 3159 3159 3160 3160 3161 3161 3161 3161 3162 3162 3162 3163 3165 3165 3165 3165 3166 3167 3168 3168 3169 3170 3169 3170 3171 3172 3172 3171 3171 3171 3171 3171 3171 3170 3170 3171 3171 3172 3172 3172 3173 3173 3173 3174 3175 3176 3177 3177 3178 3179 3179 3179 3178 3178 3179 3179 3179 3181 3180 3179 3180 3181 3180 3180 3180 3180 3180 3180 3180 3180 3181 3181 3181
3164 3164 3163 3163 3163 3162 3161 3161 3161 3161 3161 3161 3160 3159 3158 3158 3159 3160 3160 3160 3161 3161 3161 3162 3162 3162 3164 3166 3167 3167 3167 3167 3168 3168 3169 3169 3170 3170 3171 3171 3172 3172 3171 3171 3171 3172 3171 3171 3170 3170 3170 3171 3172 3172 3172 3173 3174 3174 3175 3175 3176 3178 3179 3179 3180 3180 3180 3179 3179 3180 3180 3181 3182 3182 3181 3181 3182 3182 3181 3181 3181 3181 3181 3181 3181 3181 3181 3181
3164 3163 3163 3163 3163 3162 3162 3162 3161 3161 3162 3161 3161 3160 3159 3159 3159 3160 3160 3160 3160 3161 3161 3161 3161 3161 3163 3166 3168 3168 3168 3168 3168 3169 3169 3170 3170 3171 3172 3172 3172 3172 3172 3171 3172 3172 3172 3171 3171 3171 3171 3171 3172 3173 3173 3173 3175 3175 3176 3177 3178 3178 3179 3181 3181 3181 3182 3180 3180 3181 3181 3182 3183 3183 3182 3183 3183 3183 3182 3182 3181 3181 3181 3182 3182 3182 3181 3181
3163 3163 3162 3162 3163 3162 3162 3162 3162 3162 3162 3162 3161 3160 3160 3160 3161 3161 3161 3161 3161 3161 3161 3161 3162 3161 3162 3164 3166 3168 3168 3168 3168 3169 3170 3171 3171 3171 3172 3172 3172 3172 3172 3172 3172 3172 3172 3172 3172 3172 3172 3172 3173 3173 3174 3174 3176 3176 3177 3178 3180 3180 3181 3183 3182 3183 3183 3181 3182 3183 3182 3183 3183 3183 3184 3184 3184 3184 3183 3183 3183 3183 3182 3182 3182 3182 3182 3182
3162 3162 3162 3162 3162 3162 3162 3162 3162 3162 3162 3161 3160 3159 3159 3160 3161 3162 3162 3161 3161 3161 3161 3161 3161 3162 3162 3163 3164 3167 3168 3168 3169 3169 3170 3171 3172 3172 3172 3172 3172 3172 3172 3172 3172 3172 3172 3172 3173 3173 3173 3173 3174 3174 3175 3176 3177 3177 3179 3180 3181 3182 3182 3184 3185 3184 3185 3183 3183 3184 3183 3184 3185 3185 3185 3186 3186 3185 3185 3184 3184 3184 3184 3184 3183 3183 3183 3183
3161 3161 3161 3161 3161 3162 3162 3162 3162 3162 3161 3160 3159 3158 3158 3159 3160 3161 3162 3161 3161 3161 3161 3161 3161 3161 3162 3162 3164 3167 3168 3168 3169 3169 3170 3171 3171 3171 3172 3172 3172 3172 3172 3173 3173 3173 3173 3173 3174 3174 3174 3174 3174 3176 3177 3177 3178 3179 3180 3181 3181 3183 3182 3184 3185 3186 3186 3185 3184 3185 3184 3185 3186 3186 3186 3186 3187 3186 3186 3186 3185 3185 3185 3185 3184 3184 3184 3184
3160 3160 3160 3160 3161 3161 3161 3162 3162 3161 3161 3160 3159 3159 3160 3160 3160 3161 3161 3161 3160 3160 3160 3161 3160 3160 3161 3163 3165 3166 3168 3168 3168 3169 3169 3171 3171 3171 3171 3171 3171 3171 3172 3173 3173 3173 3173 3174 3174 3174 3175 3175 3175 3177 3178 3178 3179 3181 3182 3182 3183 3184 3184 3183 3184 3186 3186 3186 3186 3186 3186 3187 3187 3187 3187 3187 3187 3187 3187 3187 3186 3185 3186 3185 3185 3185 3185 3185
3159 3159 3159 3159 3160 3160 3161 3161 3161 3161 3160 3160 3160 3160 3161 3161 3161 3161 3161 3161 3160 3160 3160 3161 3160 3160 3160 3163 3165 3166 3167 3168 3168 3168 3169 3170 3171 3171 3171 3171 3171 3171 3171 3172 3173 3173 3173 3173 3174 3174 3175 3176 3176 3177 3178 3179 3179 3181 3183 3184 3184 3184 3184 3184 3185 3186 3186 3187 3187 3186 3187 3189 3189 3188 3188 3188 3188 3188 3187 3187 3187 3186 3186 3186 3186 3186 3186 3186
3158 3158 3158 3158 3159 3159 3160 3161 3161 3160 3159 3159 3161 3162 3162 3161 3162 3162 3161 3161 3160 3159 3160 3160 3161 3160 3161 3163 3164 3165 3166 3167 3168 3169 3169 3170 3171 3171 3170 3171 3171 3171 3172 3173 3173 3174 3173 3173 3174 3174 3175 3177 3177 3178 3179 3179 3179 3181 3183 3184 3185 3185 3185 3185 3185 3186 3186 3187 3187 3186 3187 3189 3189 3189 3188 3188 3188 3189 3188 3188 3187 3187 3187 3187 3187 3187 3186 3186
3156 3157 3157 3157 3158 3158 3159 3160 3160 3159 3159 3159 3161 3162 3162 3162 3162 3162 3162 3162 3160 3159 3159 3160 3160 3161 3161 3163 3164 3164 3165 3167 3168 3169 3169 3170 3171 3171 3169 3169 3170 3171 3172 3173 3173 3173 3173 3174 3175 3175 3175 3177 3177 3178 3179 3180 3180 3181 3183 3184 3185 3186 3186 3186 3186 3186 3186 3187 3187 3187 3187 3188 3189 3189 3189 3188 3188 3188 3188 3188 3188 3188 3187 3187 3187 3187 3187 3187
3155 3155 3155 3156 3157 3157 3157 3158 3159 3158 3159 3159 3161 3162 3162 3162 3162 3162 3162 3163 3160 3158 3159 3160 3160 3161 3162 3162 3163 3164 3165 3166 3167 3168 3169 3169 3170 3170 3169 3169 3170 3170 3171 3172 3172 3173 3173 3174 3175 3175 3175 3176 3177 3177 3178 3180 3180 3181 3183 3184 3186 3186 3186 3186 3187 3187 3187 3187 3187 3187 3187 3188 3189 3189 3189 3189 3188 3188 3188 3188 3188 3188 3188 3188 3187 3187 3187 3187
3153 3154 3154 3154 3155 3156 3156 3157 3157 3157 3158 3159 3161 3161 3161 3162 3162 3162 3162 3162 3159 3158 3159 3159 3160 3161 3161 3162 3163 3164 3165 3166 3167 3168 3169 3169 3169 3169 3169 3169 3170 3171 3172 3172 3172 3172 3172 3174 3175 3175 3175 3175 3176 3177 3178 3179 3180 3182 3184 3184 3185 3185 3185 3187 3188 3188 3188 3187 3187 3187 3187 3187 3189 3188 3188 3188 3187 3187 3187 3187 3188 3188 3188 3188 3188 3188 3188 3187
3152 3152 3152 3153 3153 3154 3155 3156 3156 3156 3157 3159 3160 3161 3161 3162 3162 3162 3163 3161 3158 3158 3159 3159 3160 3161 3161 3162 3162 3163 3164 3165 3167 3168 3168 3169 3169 3169 3169 3169 3169 3170 3171 3171 3172 3172 3173 3174 3175 3175 3175 3175 3176 3178 3178 3179 3180 3182 3184 3185 3185 3186 3186 3188 3188 3188 3188 3187 3186 3186 3186 3187 3187 3187 3186 3186 3186 3186 3186 3187 3187 3187 3187 3187 3187 3188 3188 3187
3150 3150 3150 3151 3151 3153 3154 3154 3154 3155 3156 3158 3159 3160 3161 3161 3162 3162 3162 3160 3158 3158 3159 3159 3161 3162 3162 3162 3163 3163 3164 3164 3166 3167 3167 3167 3168 3169 3169 3168 3169 3169 3169 3169 3171 3173 3173 3174 3175 3176 3176 3176 3177 3178 3180 3181 3180 3181 3183 3184 3185 3186 3187 3188 3188 3188 3188 3187 3185 3185 3186 3186 3186 3185 3185 3185 3185 3185 3186 3186 3186 3186 3187 3187 3187 3187 3187 3187
3148 3148 3149 3149 3150 3151 3152 3152 3152 3154 3155 3157 3158 3159 3160 3161 3161 3160 3159 3158 3158 3158 3159 3160 3161 3162 3163 3163 3163 3164 3164 3164 3165 3166 3167 3167 3167 3168 3167 3167 3168 3168 3168 3169 3171 3172 3173 3173 3175 3176 3177 3176 3176 3178 3181 3183 3182 3181 3181 3182 3184 3185 3187 3188 3188 3188 3187 3186 3185 3185 3186 3186 3185 3184 3184 3184 3184 3185 3186 3186 3186 3186 3186 3187 3187 3187 3187 3187
3146 3147 3147 3147 3148 3149 3150 3150 3150 3152 3153 3155 3157 3158 3160 3160 3159 3158 3157 3158 3158 3158 3159 3160 3161 3162 3162 3162 3163 3164 3164 3164 3164 3165 3166 3166 3167 3167 3167 3167 3167 3168 3168 3169 3171 3172 3173 3174 3175 3176 3176 3177 3175 3176 3179 3180 3180 3180 3180 3180 3181 3183 3187 3188 3188 3187 3186 3185 3185 3186 3186 3186 3184 3183 3183 3183 3184 3185 3185 3185 3186 3186 3186 3186 3186 3186 3187 3186
3145 3145 3146 3146 3146 3147 3148 3148 3149 3150 3152 3154 3156 3157 3158 3158 3157 3156 3157 3157 3157 3158 3159 3160 3161 3162 3162 3162 3162 3162 3163 3163 3164 3165 3166 3166 3166 3166 3166 3166 3167 3168 3168 3168 3170 3171 3172 3174 3174 3173 3173 3174 3175 3175 3176 3176 3177 3178 3178 3179 3179 3180 3182 3184 3184 3184 3184 3185 3185 3186 3186 3184 3183 3183 3183 3183 3184 3185 3185 3185 3185 3185 3184 3184 3184 3185 3185 3185
3144 3144 3144 3144 3144 3145 3145 3146 3147 3149 3150 3152 3154 3155 3155 3154 3154 3155 3155 3156 3157 3158 3159 3160 3161 3161 3161 3161 3161 3161 3162 3163 3163 3164 3164 3165 3165 3165 3166 3165 3166 3167 3167 3168 3169 3170 3171 3171 3172 3171 3171 3172 3174 3175 3175 3175 3176 3178 3179 3179 3179 3178 3178 3179 3180 3180 3181 3184 3185 3185 3185 3183 3183 3182 3182 3183 3184 3184 3184 3184 3184 3183 3183 3182 3183 3183 3184 3184
3142 3142 3142 3142 3142 3142 3143 3144 3146 3147 3148 3150 3152 3151 3151 3152 3153 3154 3154 3155 3157 3157 3158 3159 3159 3160 3160 3160 3159 3160 3161 3162 3163 3163 3163 3164 3164 3164 3165 3165 3166 3167 3167 3168 3168 3169 3170 3170 3171 3171 3171 3171 3173 3174 3174 3174 3175 3177 3178 3177 3177 3178 3177 3178 3180 3180 3181 3183 3184 3184 3183 3183 3183 3183 3182 3183 3183 3183 3183 3183 3182 3182 3181 3182 3182 3183 3183 3184
3141 3141 3141 3140 3140 3140 3141 3142 3144 3145 3147 3148 3149 3148 3149 3150 3151 3152 3153 3154 3156 3156 3156 3157 3158 3158 3159 3159 3159 3160 3161 3161 3161 3162 3162 3163 3163 3163 3164 3165 3165 3166 3166 3167 3167 3168 3168 3169 3171 3172 3171 3171 3172 3173 3173 3174 3174 3176 3176 3176 3177 3177 3177 3177 3179 3181 3182 3183 3183 3182 3181 3181 3181 3181 3181 3181 3181 3181 3181 3181 3181 3181 3181 3181 3182 3183 3183 3184
3139 3139 3139 3138 3137 3138 3139 3141 3142 3143 3145 3146 3146 3147 3148 3149 3150 3151 3152 3153 3155 3156 3156 3156 3157 3157 3157 3157 3158 3159 3160 3160 3160 3160 3161 3162 3162 3162 3162 3164 3164 3165 3165 3166 3166 3167 3168 3169 3170 3171 3172 3172 3172 3173 3173 3174 3175 3175 3175 3175 3176 3176 3176 3175 3177 3179 3180 3182 3182 3181 3180 3179 3177 3177 3177 3178 3178 3179 3179 3179 3179 3180 3180 3181 3182 3182 3183 3184
3138 3138 3137 3136 3136 3136 3138 3139 3140 3141 3143 3143 3144 3145 3146 3147 3148 3150 3152 3153 3154 3155 3155 3156 3156 3156 3156 3156 3157 3158 3159 3158 3159 3160 3160 3161 3161 3161 3162 3163 3164 3164 3164 3165 3166 3166 3167 3168 3169 3170 3171 3171 3172 3173 3172 3172 3173 3174 3174 3175 3175 3175 3174 3174 3175 3174 3175 3178 3180 3180 3180 3177 3174 3173 3173 3174 3176 3177 3177 3178 3178 3179 3180 3181 3181 3182 3183 3184
3136 3137 3136 3135 3135 3136 3137 3137 3138 3139 3140 3141 3142 3143 3145 3146 3147 3149 3151 3152 3153 3153 3154 3154 3155 3156 3156 3156 3156 3157 3157 3157 3158 3159 3159 3160 3161 3161 3161 3162 3163 3163 3164 3165 3165 3166 3167 3167 3168 3170 3171 3171 3172 3173 3172 3172 3173 3173 3173 3173 3173 3173 3173 3173 3173 3172 3172 3175 3177 3179 3178 3173 3170 3171 3172 3172 3174 3175 3175 3176 3177 3178 3179 3180 3181 3181 3182 3183
3135 3135 3135 3135 3134 3135 3135 3136 3136 3137 3138 3139 3141 3142 3144 3145 3146 3147 3150 3151 3151 3151 3152 3152 3153 3154 3154 3155 3156 3156 3156 3156 3157 3157 3158 3159 3160 3160 3161 3162 3163 3163 3163 3164 3165 3165 3166 3167 3168 3170 3170 3171 3171 3172 3172 3171 3172 3172 3172 3172 3172 3172 3171 3172 3172 3172 3171 3172 3173 3175 3173 3169 3168 3170 3170 3172 3173 3174 3175 3176 3176 3177 3178 3180 3181 3181 3181 3181
3133 3134 3134 3134 3134 3133 3134 3134 3135 3136 3137 3138 3139 3141 3143 3143 3144 3146 3148 3150 3150 3150 3150 3151 3152 3153 3153 3153 3154 3155 3155 3155 3156 3156 3157 3158 3159 3159 3160 3162 3162 3162 3163 3164 3164 3165 3166 3167 3168 3169 3169 3170 3170 3171 3171 3171 3171 3171 3171 3171 3171 3171 3170 3171 3171 3170 3170 3170 3171 3171 3170 3168 3168 3169 3169 3171 3172 3173 3174 3175 3176 3177 3178 3179 3180 3180 3181 3181
3131 3132 3133 3133 3133 3132 3132 3133 3133 3134 3135 3137 3138 3139 3141 3142 3142 3144 3146 3148 3148 3148 3149 3149 3150 3152 3152 3152 3153 3153 3154 3154 3154 3155 3156 3157 3158 3159 3160 3161 3161 3161 3162 3164 3164 3165 3165 3166 3167 3168 3169 3169 3170 3170 3170 3170 3170 3171 3171 3170 3170 3170 3170 3169 3169 3168 3169 3169 3169 3170 3170 3168 3168 3168 3169 3170 3171 3172 3173 3174 3175 3176 3177 3178 3179 3179 3180 3180
3129 3130 3131 3131 3131 3131 3130 3131 3131 3132 3134 3136 3136 3137 3139 3140 3140 3142 3143 3145 3146 3147 3147 3148 3148 3150 3151 3151 3151 3151 3152 3154 3154 3154 3156 3156 3157 3158 3159 3160 3160 3161 3162 3163 3164 3164 3165 3166 3166 3167 3168 3169 3170 3170 3170 3170 3170 3170 3170 3169 3169 3169 3169 3169 3168 3168 3169 3169 3169 3169 3169 3167 3167 3168 3168 3169 3171 3172 3172 3173 3174 3175 3176 3177 3178 3178 3179 3179
3127 3128 3130 3130 3129 3130 3130 3130 3131 3132 3133 3134 3134 3135 3137 3137 3138 3140 3142 3142 3143 3144 3145 3146 3147 3148 3149 3150 3150 3150 3151 3153 3153 3154 3155 3156 3156 3157 3158 3159 3160 3161 3162 3163 3164 3164 3165 3165 3166 3166 3167 3168 3169 3169 3168 3169 3169 3169 3169 3169 3169 3168 3168 3168 3168 3168 3168 3168 3168 3168 3167 3166 3167 3167 3167 3168 3170 3171 3172 3172 3173 3175 3175 3176 3177 3177 3177 3178
3124 3126 3127 3128 3127 3128 3129 3130 3131 3132 3132 3133 3133 3133 3135 3136 3137 3139 3140 3141 3142 3142 3143 3144 3145 3146 3148 3149 3149 3150 3151 3152 3152 3153 3154 3155 3156 3157 3158 3158 3159 3160 3161 3162 3163 3163 3164 3165 3165 3165 3166 3166 3167 3167 3167 3168 3168 3168 3168 3168 3168 3168 3167 3167 3167 3167 3167 3167 3166 3166 3165 3165 3166 3166 3166 3167 3168 3169 3170 3171 3172 3174 3174 3175 3176 3176 3177 3178
3122 3123 3124 3125 3125 3126 3127 3129 3130 3130 3131 3131 3131 3132 3133 3135 3136 3138 3139 3140 3141 3142 3142 3143 3144 3145 3146 3147 3148 3149 3150 3150 3151 3152 3153 3154 3156 3156 3157 3158 3158 3159 3160 3161 3162 3163 3163 3164 3164 3165 3165 3165 3166 3166 3166 3167 3167 3167 3167 3167 3167 3167 3166 3166 3166 3166 3166 3166 3165 3165 3164 3164 3164 3165 3165 3166 3166 3167 3168 3169 3171 3172 3173 3174 3175 3175 3176 3177
3119 3119 3120 3122 3123 3123 3124 3126 3127 3128 3129 3129 3129 3130 3131 3133 3134 3136 3137 3138 3140 3141 3142 3142 3143 3144 3145 3146 3147 3148 3149 3150 3150 3151 3152 3153 3155 3155 3156 3157 3158 3158 3160 3161 3161 3162 3163 3164 3164 3164 3164 3165 3165 3165 3165 3165 3166 3166 3165 3165 3166 3165 3165 3165 3164 3164 3164 3164 3164 3164 3164 3163 3163 3163 3164 3165 3165 3166 3167 3169 3170 3172 3173 3173 3174 3175 3176 3177
3115 3116 3117 3119 3120 3121 3122 3124 3125 3126 3127 3127 3127 3128 3129 3131 3132 3134 3135 3137 3137 3139 3140 3140 3141 3142 3143 3145 3146 3147 3147 3148 3149 3150 3151 3152 3154 3154 3155 3156 3156 3158 3159 3160 3160 3161 3162 3163 3163 3164 3164 3164 3164 3164 3164 3164 3164 3164 3164 3164 3164 3164 3164 3163 3163 3163 3163 3163 3163 3163 3163 3163 3163 3163 3163 3164 3165 3166 3167 3169 3170 3171 3172 3173 3174 3175 3176 3177
3111 3113 3115 3116 3117 3119 3121 3122 3122 3123 3125 3126 3126 3127 3128 3129 3130 3132 3133 3134 3135 3136 3137 3138 3139 3140 3142 3144 3145 3145 3146 3147 3148 3149 3150 3151 3152 3154 3154 3154 3155 3157 3158 3159 3160 3161 3161 3162 3163 3163 3163 3163 3163 3163 3163 3163 3163 3162 3162 3162 3162 3162 3162 3162 3162 3162 3162 3162 3163 3162 3162 3162 3162 3162 3163 3164 3165 3166 3167 3168 3169 3170 3171 3172 3173 3175 3176 3177
3107 3110 3112 3113 3114 3117 3118 3119 3120 3121 3123 3125 3126 3127 3127 3128 3129 3130 3131 3132 3132 3133 3136 3137 3138 3139 3141 3142 3143 3144 3144 3145 3147 3148 3149 3150 3152 3153 3153 3154 3155 3156 3157 3158 3159 3160 3161 3162 3162 3162 3163 3162 3162 3162 3162 3162 3162 3161 3160 3160 3160 3160 3161 3161 3160 3160 3161 3161 3161 3161 3161 3162 3162 3161 3162 3163 3164 3165 3166 3167 3169 3170 3170 3171 3173 3175 3176 3176
3105 3107 3108 3110 3111 3113 3115 3117 3118 3119 3121 3123 3123 3123 3124 3125 3127 3128 3129 3130 3130 3131 3133 3136 3136 3137 3139 3140 3141 3142 3143 3144 3146 3147 3148 3149 3151 3152 3153 3153 3154 3155 3156 3157 3158 3159 3160 3161 3161 3162 3162 3162 3162 3162 3162 3162 3161 3160 3159 3158 3158 3158 3159 3159 3159 3159 3160 3160 3160 3160 3160 3161 3161 3160 3160 3162 3163 3164 3165 3166 3167 3169 3169 3171 3172 3174 3175 3175